TimeCST,TemperatureF,Dew PointF,Humidity,Sea Level PressureIn,VisibilityMPH,Wind Direction,Wind SpeedMPH,Gust SpeedMPH,PrecipitationIn,Events,Conditions,WindDirDegrees,DateUTC
12:15 AM,3.2,-2.2,78,29.72,10.0,WNW,10.4,19.6,N/A,,Scattered Clouds,290,2014-02-22 06:15:00
12:35 AM,1.4,-2.2,85,29.73,10.0,West,10.4,17.3,N/A,,Clear,280,2014-02-22 06:35:00
12:53 AM,1.4,-2.2,85,29.73,10.0,West,11.5,16.1,N/A,,Clear,270,2014-02-22 06:53:00
1:15 AM,1.4,-4.0,78,29.74,10.0,West,9.2,-,N/A,,Clear,270,2014-02-22 07:15:00
1:34 AM,-0.4,-4.0,85,29.74,10.0,West,10.4,-,N/A,,Clear,270,2014-02-22 07:34:00
1:53 AM,-0.4,-4.0,85,29.75,10.0,West,10.4,-,N/A,,Mostly Cloudy,280,2014-02-22 07:53:00
2:15 AM,-0.4,-5.8,78,29.75,10.0,West,10.4,-,N/A,,Scattered Clouds,270,2014-02-22 08:15:00
2:35 AM,-0.4,-5.8,78,29.76,10.0,West,10.4,-,N/A,,Clear,270,2014-02-22 08:35:00
2:53 AM,-0.4,-5.8,78,29.76,10.0,West,10.4,17.3,N/A,,Clear,270,2014-02-22 08:53:00
3:15 AM,-0.4,-5.8,78,29.77,10.0,West,11.5,16.1,N/A,,Clear,270,2014-02-22 09:15:00
3:34 AM,-2.2,-5.8,85,29.78,10.0,West,10.4,-,N/A,,Clear,270,2014-02-22 09:34:00
3:53 AM,-2.2,-5.8,85,29.79,10.0,West,9.2,-,N/A,,Clear,270,2014-02-22 09:53:00
4:15 AM,-2.2,-5.8,85,29.80,10.0,West,11.5,16.1,N/A,,Clear,270,2014-02-22 10:15:00
4:34 AM,-2.2,-7.6,78,29.81,10.0,West,9.2,-,N/A,,Clear,280,2014-02-22 10:34:00
4:53 AM,-2.2,-7.6,78,29.81,10.0,West,10.4,17.3,N/A,,Clear,280,2014-02-22 10:53:00
5:15 AM,-2.2,-7.6,78,29.81,10.0,WNW,9.2,-,N/A,,Clear,290,2014-02-22 11:15:00
5:35 AM,-2.2,-7.6,78,29.82,10.0,West,11.5,17.3,N/A,,Clear,280,2014-02-22 11:35:00
5:53 AM,-2.2,-7.6,78,29.83,10.0,West,9.2,17.3,N/A,,Clear,280,2014-02-22 11:53:00
6:14 AM,-2.2,-7.6,78,29.83,10.0,West,9.2,-,N/A,,Clear,280,2014-02-22 12:14:00
6:35 AM,-4.0,-7.6,85,29.84,10.0,West,9.2,-,N/A,,Clear,270,2014-02-22 12:35:00
6:53 AM,-4.0,-7.6,85,29.85,10.0,West,11.5,-,N/A,,Clear,270,2014-02-22 12:53:00
7:14 AM,-4.0,-9.4,78,29.85,10.0,West,10.4,-,N/A,,Clear,270,2014-02-22 13:14:00
7:34 AM,-4.0,-9.4,78,29.86,10.0,West,10.4,-,N/A,,Clear,270,2014-02-22 13:34:00
7:53 AM,-4.0,-7.6,85,29.86,10.0,West,10.4,-,N/A,,Clear,270,2014-02-22 13:53:00
8:14 AM,-2.2,-9.4,71,29.87,10.0,West,10.4,16.1,N/A,,Clear,280,2014-02-22 14:14:00
8:35 AM,-2.2,-7.6,78,29.87,10.0,West,10.4,-,N/A,,Clear,280,2014-02-22 14:35:00
8:53 AM,-2.2,-7.6,78,29.87,10.0,West,12.7,17.3,N/A,,Clear,280,2014-02-22 14:53:00
9:15 AM,-0.4,-7.6,72,29.88,10.0,West,10.4,19.6,N/A,,Clear,280,2014-02-22 15:15:00
9:34 AM,-0.4,-7.6,72,29.88,10.0,WNW,10.4,19.6,N/A,,Clear,290,2014-02-22 15:34:00
9:53 AM,-0.4,-7.6,72,29.88,10.0,West,13.8,18.4,N/A,,Clear,280,2014-02-22 15:53:00
10:15 AM,1.4,-5.8,72,29.89,10.0,West,13.8,17.3,N/A,,Clear,280,2014-02-22 16:15:00
10:35 AM,1.4,-5.8,72,-9999,10.0,West,12.7,19.6,N/A,,Clear,280,2014-02-22 16:35:00
10:53 AM,1.4,-5.8,72,29.90,10.0,West,12.7,18.4,N/A,,Clear,270,2014-02-22 16:53:00
11:15 AM,3.2,-5.8,66,29.90,10.0,West,13.8,-,N/A,,Clear,260,2014-02-22 17:15:00
11:34 AM,3.2,-5.8,66,29.91,10.0,West,12.7,18.4,N/A,,Clear,270,2014-02-22 17:34:00
11:53 AM,3.2,-4.0,72,29.92,10.0,West,13.8,-,N/A,,Clear,270,2014-02-22 17:53:00
12:15 PM,5.0,-4.0,66,29.91,10.0,West,15.0,18.4,N/A,,Clear,280,2014-02-22 18:15:00
12:35 PM,5.0,-4.0,66,29.91,10.0,West,16.1,21.9,N/A,,Clear,280,2014-02-22 18:35:00
12:53 PM,5.0,-4.0,66,29.92,10.0,West,13.8,19.6,N/A,,Clear,280,2014-02-22 18:53:00
1:15 PM,6.8,-4.0,61,29.92,10.0,West,12.7,20.7,N/A,,Clear,270,2014-02-22 19:15:00
1:35 PM,6.8,-2.2,67,29.92,10.0,West,13.8,18.4,N/A,,Clear,280,2014-02-22 19:35:00
1:52 PM,6.8,-4.0,61,29.93,10.0,West,13.8,21.9,N/A,,Clear,280,2014-02-22 19:52:00
2:14 PM,6.8,-2.2,67,29.93,10.0,West,13.8,19.6,N/A,,Clear,270,2014-02-22 20:14:00
2:34 PM,6.8,-2.2,67,29.93,10.0,West,13.8,18.4,N/A,,Clear,280,2014-02-22 20:34:00
2:53 PM,6.8,-2.2,67,29.93,10.0,West,11.5,17.3,N/A,,Clear,280,2014-02-22 20:53:00
3:15 PM,6.8,-2.2,67,29.94,10.0,WNW,10.4,-,N/A,,Clear,290,2014-02-22 21:15:00
3:35 PM,6.8,-2.2,67,29.94,10.0,West,11.5,19.6,N/A,,Clear,280,2014-02-22 21:35:00
3:53 PM,8.6,-2.2,62,29.95,10.0,West,11.5,19.6,N/A,,Clear,280,2014-02-22 21:53:00
4:15 PM,6.8,-2.2,67,29.95,10.0,West,13.8,20.7,N/A,,Clear,270,2014-02-22 22:15:00
4:35 PM,6.8,-2.2,67,29.95,10.0,West,13.8,-,N/A,,Clear,280,2014-02-22 22:35:00
4:52 PM,6.8,-2.2,67,29.95,10.0,West,12.7,20.7,N/A,,Clear,280,2014-02-22 22:52:00
5:14 PM,6.8,-2.2,67,29.97,10.0,WNW,10.4,16.1,N/A,,Clear,290,2014-02-22 23:14:00
5:34 PM,6.8,-2.2,67,29.97,10.0,West,11.5,-,N/A,,Clear,280,2014-02-22 23:34:00
5:52 PM,6.8,-2.2,67,29.98,10.0,WNW,12.7,20.7,N/A,,Clear,290,2014-02-22 23:52:00
6:14 PM,5.0,-0.4,78,29.98,10.0,WNW,8.1,16.1,N/A,,Clear,290,2014-02-23 00:14:00
6:35 PM,5.0,-2.2,72,29.99,10.0,WNW,11.5,16.1,N/A,,Clear,290,2014-02-23 00:35:00
6:53 PM,3.2,-2.2,78,30.00,10.0,WNW,10.4,17.3,N/A,,Scattered Clouds,290,2014-02-23 00:53:00
7:15 PM,3.2,-2.2,78,30.00,10.0,WNW,10.4,-,N/A,,Scattered Clouds,290,2014-02-23 01:15:00
7:35 PM,3.2,-2.2,78,30.01,10.0,WNW,10.4,16.1,N/A,,Clear,290,2014-02-23 01:35:00
7:53 PM,3.2,-2.2,78,30.01,10.0,WNW,12.7,-,N/A,,Clear,290,2014-02-23 01:53:00
8:15 PM,3.2,-2.2,78,30.02,10.0,WNW,12.7,17.3,N/A,,Clear,290,2014-02-23 02:15:00
8:35 PM,3.2,-2.2,78,30.02,10.0,WNW,15.0,20.7,N/A,,Clear,290,2014-02-23 02:35:00
8:53 PM,3.2,-4.0,72,30.03,10.0,WNW,10.4,-,N/A,,Clear,300,2014-02-23 02:53:00
9:15 PM,1.4,-4.0,78,30.04,10.0,WNW,10.4,16.1,N/A,,Clear,300,2014-02-23 03:15:00
9:34 PM,1.4,-4.0,78,30.05,10.0,WNW,8.1,-,N/A,,Clear,290,2014-02-23 03:34:00
9:53 PM,1.4,-4.0,78,30.05,10.0,WNW,8.1,-,N/A,,Clear,290,2014-02-23 03:53:00
10:15 PM,1.4,-5.8,72,30.05,10.0,West,8.1,-,N/A,,Clear,280,2014-02-23 04:15:00
10:35 PM,1.4,-5.8,72,30.06,10.0,West,8.1,-,N/A,,Clear,270,2014-02-23 04:35:00
10:53 PM,1.4,-5.8,72,30.06,10.0,West,8.1,-,N/A,,Clear,270,2014-02-23 04:53:00
11:15 PM,-0.4,-5.8,78,30.06,10.0,West,8.1,-,N/A,,Clear,270,2014-02-23 05:15:00
11:35 PM,-0.4,-5.8,78,30.06,10.0,West,9.2,-,N/A,,Clear,270,2014-02-23 05:35:00
11:52 PM,-0.4,-5.8,78,30.06,10.0,West,8.1,-,N/A,,Clear,270,2014-02-23 05:52:00